TimeCEST,TemperatureF,Dew PointF,Humidity,Sea Level PressureIn,VisibilityMPH,Wind Direction,Wind SpeedMPH,Gust SpeedMPH,PrecipitationIn,Events,Conditions,WindDirDegrees,DateUTC
12:15 AM,46.4,44.6,93,30.15,3.1,Variable,2.2,-,N/A,,Clear,0,2012-10-21 22:15:00
12:45 AM,48.2,46.4,93,30.15,3.1,Variable,2.2,-,N/A,,Clear,0,2012-10-21 22:45:00
1:15 AM,46.4,44.6,93,30.15,3.1,Variable,2.2,-,N/A,,Clear,0,2012-10-21 23:15:00
1:45 AM,46.4,44.6,93,30.15,3.1,Variable,2.2,-,N/A,,Clear,0,2012-10-21 23:45:00
2:15 AM,46.4,44.6,93,30.15,3.1,Variable,2.2,-,N/A,,Clear,0,2012-10-22 00:15:00
2:45 AM,44.6,42.8,93,30.15,1.9,NNW,2.2,-,N/A,,Clear,330,2012-10-22 00:45:00
3:15 AM,44.6,42.8,93,30.15,1.9,NW,2.2,-,N/A,,Clear,320,2012-10-22 01:15:00
3:45 AM,-9999,-9999,N/A,-9999,0.9,Variable,4.5,-,N/A,Fog,Fog,0,2012-10-22 01:45:00
4:15 AM,42.8,41.0,93,30.18,0.9,NNW,2.2,-,N/A,Fog,Clear,330,2012-10-22 02:15:00
4:45 AM,42.8,42.8,100,30.18,0.9,NNW,2.2,-,N/A,Fog,Shallow Fog,330,2012-10-22 02:45:00
5:15 AM,42.8,41.0,93,30.18,0.9,NW,2.2,-,N/A,Fog,Clear,310,2012-10-22 03:15:00
5:45 AM,42.8,41.0,93,30.18,0.9,NW,2.2,-,N/A,Fog,Shallow Fog,320,2012-10-22 03:45:00
6:15 AM,42.8,41.0,93,30.18,0.9,WNW,2.2,-,N/A,Fog,Clear,300,2012-10-22 04:15:00
6:45 AM,39.2,39.2,100,30.18,0.7,WNW,2.2,-,N/A,Fog,Shallow Fog,290,2012-10-22 04:45:00
7:15 AM,39.2,39.2,100,30.18,0.7,WNW,2.2,-,N/A,Fog,Shallow Fog,290,2012-10-22 05:15:00
7:37 AM,41.0,39.2,93,30.18,0.3,WNW,4.5,-,N/A,Fog,Fog,290,2012-10-22 05:37:00
7:45 AM,41.0,39.2,93,30.18,0.2,WNW,2.2,-,N/A,Fog,Fog,290,2012-10-22 05:45:00
8:45 AM,44.6,44.6,100,30.21,0.2,NW,4.5,-,N/A,Fog,Fog,320,2012-10-22 06:45:00
8:55 AM,44.6,42.8,93,30.21,0.5,North,4.5,-,N/A,Fog,Fog,350,2012-10-22 06:55:00
9:15 AM,48.2,46.4,93,30.21,0.5,North,4.5,-,N/A,Fog,Fog,350,2012-10-22 07:15:00
9:45 AM,48.2,46.4,93,30.21,0.5,North,2.2,-,N/A,Fog,Fog,350,2012-10-22 07:45:00
10:12 AM,51.8,48.2,88,30.21,0.9,Calm,Calm,-,N/A,,Clear,0,2012-10-22 08:12:00
10:42 AM,57.2,51.8,82,30.21,1.9,Calm,Calm,-,N/A,,Clear,0,2012-10-22 08:42:00
10:45 AM,57.2,51.8,82,30.21,1.9,Calm,Calm,-,N/A,,Clear,0,2012-10-22 08:45:00
11:11 AM,60.8,50.0,68,30.21,3.1,NW,2.2,-,N/A,,Clear,320,2012-10-22 09:11:00
11:15 AM,60.8,50.0,68,30.21,3.7,NW,2.2,-,N/A,,Clear,320,2012-10-22 09:15:00
11:45 AM,62.6,48.2,59,30.18,-9999.0,NW,2.2,-,N/A,,Clear,310,2012-10-22 09:45:00
12:00 PM,-9999,-9999,N/A,-9999,-9999.0,Variable,4.5,-,N/A,,Clear,0,2012-10-22 10:00:00
12:15 PM,64.4,50.0,59,30.18,-9999.0,NW,4.5,-,N/A,,Clear,320,2012-10-22 10:15:00
12:45 PM,-9999,-9999,N/A,-9999,3.1,NNW,4.5,-,N/A,,Clear,330,2012-10-22 10:45:00
1:15 PM,66.2,50.0,56,30.18,-9999.0,NNW,2.2,-,N/A,,Clear,330,2012-10-22 11:15:00
1:45 PM,66.2,50.0,56,30.15,-9999.0,NNW,2.2,-,N/A,,Clear,330,2012-10-22 11:45:00
2:15 PM,66.2,50.0,56,30.15,-9999.0,North,4.5,-,N/A,,Clear,10,2012-10-22 12:15:00
2:45 PM,68.0,50.0,52,30.15,-9999.0,North,4.5,-,N/A,,Clear,10,2012-10-22 12:45:00
3:45 PM,-9999,-9999,N/A,-9999,3.1,NNW,4.5,-,N/A,Fog,Fog,340,2012-10-22 13:45:00
4:15 PM,66.2,50.0,56,30.15,-9999.0,NNE,4.5,-,N/A,,Clear,20,2012-10-22 14:15:00
4:45 PM,66.2,50.0,56,30.15,-9999.0,NNE,2.2,-,N/A,,Clear,20,2012-10-22 14:45:00
5:15 PM,64.4,50.0,59,30.15,-9999.0,North,2.2,-,N/A,,Clear,10,2012-10-22 15:15:00
5:45 PM,60.8,50.0,68,30.15,-9999.0,Calm,Calm,-,N/A,,Clear,0,2012-10-22 15:45:00
6:15 PM,59.0,50.0,72,30.15,-9999.0,North,2.2,-,N/A,,Clear,350,2012-10-22 16:15:00
6:45 PM,-9999,-9999,N/A,-9999,1.9,Variable,4.5,-,N/A,Fog,Fog,0,2012-10-22 16:45:00
7:15 PM,53.6,50.0,88,30.15,-9999.0,Calm,Calm,-,N/A,,Clear,0,2012-10-22 17:15:00
7:45 PM,51.8,48.2,88,30.15,-9999.0,Calm,Calm,-,N/A,,Clear,0,2012-10-22 17:45:00
8:15 PM,51.8,48.2,88,30.15,-9999.0,Calm,Calm,-,N/A,,Clear,0,2012-10-22 18:15:00
8:45 PM,50.0,48.2,94,30.15,5.0,Calm,Calm,-,N/A,,Clear,0,2012-10-22 18:45:00
9:15 PM,50.0,48.2,94,30.15,5.0,Calm,Calm,-,N/A,,Clear,0,2012-10-22 19:15:00
9:45 PM,-9999,-9999,N/A,-9999,1.9,Variable,4.5,-,N/A,,Overcast,0,2012-10-22 19:45:00
10:15 PM,48.2,46.4,93,30.18,3.1,West,2.2,-,N/A,,Clear,270,2012-10-22 20:15:00
10:18 PM,48.2,46.4,93,30.18,3.1,West,2.2,-,N/A,,Clear,270,2012-10-22 20:18:00
11:15 PM,48.2,46.4,93,30.18,3.1,WNW,2.2,-,N/A,,Clear,290,2012-10-22 21:15:00
11:45 PM,46.4,44.6,93,30.18,2.5,WNW,2.2,-,N/A,,Clear,290,2012-10-22 21:45:00